Location: Clermont
(50.2608°N, 4.3172°E)
Time: 05:38:09
(UTC+00:00)

Cosmos 2219 Rocket - Pass Details

Date: 13 August 2020
Orbit: 826 x 848 km, 71.0° (Epoch: 19 September)

Event Time Altitude Azimuth Distance (km) Brightness Sun altitude
Rises 20:23:07 0° 332° (NNW) 3,415 6.8 -11.5°
Reaches altitude 10° 20:26:22 10° 350° (N) 2,480 5.4 -11.9°
Maximum altitude 20:30:18 19° 35° (NE) 1,934 4.2 -12.3°
Drops below altitude 10° 20:34:14 10° 79° (ENE) 2,478 4.3 -12.8°
Enters shadow 20:35:23 - 86° (E) 2,784 4.5 -12.9°
